N0ZMJ-3 Weather Reports


Display with metric or nautical units.
time (UTC)temp
F
wind
direction
speed
MPH
gust
MPH
rain 1hr
in
rain 24hr
in
rain mn
in
humidity
%
barometer
mb
20260504160415 56 337 8.0 19.0 0.00 0.00 0.00 57 1002.7
20260504160322 56 337 8.0 19.0 0.00 0.00 0.00 57 1002.7
20260504150723 55 330 6.0 14.0 0.00 0.00 0.00 63 1001.9
20260504150415 55 338 8.0 17.0 0.00 0.00 0.00 62 1001.9
20260504141123 53 334 6.0 11.0 0.00 0.00 0.00 69 1001.7
20260504140415 53 340 4.0 10.0 0.00 0.00 0.00 70 1001.7
20260504130415 52 338 2.0 6.0 0.00 0.00 0.00 79 1001.1
20260504130122 52 338 2.0 6.0 0.00 0.00 0.00 79 1001.1
20260504110414 51 231 2.0 8.0 0.00 0.00 0.00 78 999.5
20260504100415 54 263 3.0 12.0 0.00 0.00 0.00 68 999.7
20260504081414 56 220 7.0 14.0 0.00 0.00 0.00 53 999.3
20260504080722 56 219 8.0 14.0 0.00 0.00 0.00 52 999.4
20260504080414 55 222 7.0 14.0 0.00 0.00 0.00 52 999.5
20260504060123 54 230 4.0 9.0 0.00 0.00 0.00 51 1001.3
20260504050527 54 219 4.0 8.0 0.00 0.00 0.00 54 1002.1
20260504050415 54 223 4.0 7.0 0.00 0.00 0.00 53 1002.3
20260504045822 54 217 2.0 6.0 0.00 0.00 0.00 53 1002.3
20260504045414 54 217 3.0 6.0 0.00 0.00 0.00 53 1002.4
20260504045122 54 217 3.0 6.0 0.00 0.00 0.00 53 1002.4
20260504044415 54 240 2.0 7.0 0.00 0.00 0.00 52 1002.4
20260504043722 54 217 3.0 7.0 0.00 0.00 0.00 52 1002.6
20260504043415 54 224 3.0 5.0 0.00 0.00 0.00 52 1002.6
20260504043023 54 224 3.0 5.0 0.00 0.00 0.00 52 1002.6
20260504042415 54 224 3.0 7.0 0.00 0.00 0.00 51 1002.7
20260504042326 54 224 3.0 7.0 0.00 0.00 0.00 51 1002.7
20260504041624 54 216 3.0 7.0 0.00 0.00 0.00 51 1002.6
20260504041415 54 233 3.0 6.0 0.00 0.00 0.00 50 1002.9
20260504040927 54 234 3.0 6.0 0.00 0.00 0.00 49 1002.9
20260504040414 54 234 2.0 5.0 0.00 0.00 0.00 49 1003.0
20260504040223 54 234 2.0 5.0 0.00 0.00 0.00 49 1003.0
20260504035523 54 234 3.0 6.0 0.00 0.00 0.00 49 1003.2
20260504035414 54 234 3.0 6.0 0.00 0.00 0.00 48 1003.4
20260504034822 54 242 2.0 6.0 0.00 0.00 0.00 48 1003.4
20260504034414 54 264 1.0 5.0 0.00 0.00 0.00 49 1003.5
20260504034123 54 264 1.0 5.0 0.00 0.00 0.00 49 1003.5
20260504033414 54 264 2.0 5.0 0.00 0.00 0.00 49 1003.6
20260504032721 54 264 2.0 4.0 0.00 0.00 0.00 50 1003.6
20260504032416 54 264 1.0 4.0 0.00 0.00 0.00 49 1003.8
20260504032023 54 264 1.0 4.0 0.00 0.00 0.00 49 1003.8
20260504031416 55 264 1.0 3.0 0.00 0.00 0.00 49 1004.0
20260504031326 55 264 1.0 3.0 0.00 0.00 0.00 49 1004.0
20260504030625 55 264 0.0 3.0 0.00 0.00 0.00 49 1004.1
20260504030416 55 264 1.0 4.0 0.00 0.00 0.00 49 1004.0
20260504025924 55 264 1.0 4.0 0.00 0.00 0.00 49 1004.0
20260504025416 56 264 1.0 3.0 0.00 0.00 0.00 49 1003.9
20260504025226 56 264 1.0 3.0 0.00 0.00 0.00 49 1003.9
20260504024524 56 264 1.0 3.0 0.00 0.00 0.00 47 1004.1
20260504024415 57 264 1.0 3.0 0.00 0.00 0.00 47 1004.1
20260504023822 57 264 0.0 3.0 0.00 0.00 0.00 46 1004.2
20260504023415 57 264 1.0 4.0 0.00 0.00 0.00 45 1004.3
20260504023122 57 264 1.0 4.0 0.00 0.00 0.00 45 1004.3
20260504022416 58 264 1.0 4.0 0.00 0.00 0.00 44 1004.3
20260504021723 59 264 1.0 3.0 0.00 0.00 0.00 43 1004.3
20260504021416 59 264 1.0 3.0 0.00 0.00 0.00 42 1004.3
20260504021025 59 264 1.0 3.0 0.00 0.00 0.00 42 1004.3
20260504020416 60 264 2.0 4.0 0.00 0.00 0.00 41 1004.4
20260504020326 60 264 2.0 4.0 0.00 0.00 0.00 41 1004.4
20260504015629 61 264 1.0 4.0 0.00 0.00 0.00 40 1004.4
20260504015415 61 264 1.0 2.0 0.00 0.00 0.00 40 1004.5
20260504014925 62 264 1.0 3.0 0.00 0.00 0.00 40 1004.5
20260504014415 62 264 1.0 5.0 0.00 0.00 0.00 38 1004.5
20260504014224 62 264 1.0 5.0 0.00 0.00 0.00 38 1004.5
20260504013522 63 264 1.0 5.0 0.00 0.00 0.00 37 1004.6
20260504013414 63 264 1.0 3.0 0.00 0.00 0.00 36 1004.6
20260504012822 63 264 1.0 3.0 0.00 0.00 0.00 36 1004.6
20260504012414 64 264 2.0 5.0 0.00 0.00 0.00 35 1004.6
20260504012123 64 264 2.0 5.0 0.00 0.00 0.00 35 1004.6
20260504011416 65 264 1.0 6.0 0.00 0.00 0.00 34 1004.6
20260504010724 66 264 2.0 6.0 0.00 0.00 0.00 34 1004.7
20260504010415 66 265 2.0 6.0 0.00 0.00 0.00 33 1004.7
20260504010024 66 265 2.0 6.0 0.00 0.00 0.00 33 1004.7
20260504005415 67 240 2.0 8.0 0.00 0.00 0.00 32 1004.8
20260504005327 67 240 2.0 8.0 0.00 0.00 0.00 32 1004.8
20260504004623 67 237 2.0 6.0 0.00 0.00 0.00 32 1004.7
20260504004414 68 237 3.0 10.0 0.00 0.00 0.00 31 1004.8
20260504003923 68 242 4.0 11.0 0.00 0.00 0.00 31 1004.8
20260504003414 68 250 4.0 11.0 0.00 0.00 0.00 31 1004.9
20260504003225 68 250 4.0 11.0 0.00 0.00 0.00 31 1004.9
20260504002524 68 243 4.0 9.0 0.00 0.00 0.00 30 1004.8
20260504002416 69 245 4.0 11.0 0.00 0.00 0.00 31 1004.9
20260504001824 69 249 3.0 11.0 0.00 0.00 0.00 30 1004.9
20260504001414 69 249 5.0 10.0 0.00 0.00 0.00 29 1005.0
20260504001122 69 249 5.0 10.0 0.00 0.00 0.00 29 1005.0
20260504000416 69 249 4.0 11.0 0.00 0.00 0.00 29 1005.1
20260503235723 69 230 2.0 12.0 0.00 0.00 0.00 31 1005.1
20260503235415 69 239 5.0 14.0 0.00 0.00 0.00 29 1005.1
20260503235022 69 239 5.0 14.0 0.00 0.00 0.00 29 1005.1
20260503234415 70 237 5.0 9.0 0.00 0.00 0.00 28 1005.3
20260503234323 70 237 5.0 9.0 0.00 0.00 0.00 28 1005.3
20260503233623 70 257 4.0 11.0 0.00 0.00 0.00 31 1005.4
20260503233415 70 245 4.0 11.0 0.00 0.00 0.00 29 1005.5
20260503232922 70 248 6.0 11.0 0.00 0.00 0.00 28 1005.5
20260503232415 70 243 3.0 11.0 0.00 0.00 0.00 31 1005.5
20260503232223 70 243 3.0 11.0 0.00 0.00 0.00 31 1005.5
20260503231522 70 243 5.0 11.0 0.00 0.00 0.00 27 1005.6
20260503231414 70 257 3.0 10.0 0.00 0.00 0.00 30 1005.7
20260503230823 70 243 5.0 14.0 0.00 0.00 0.00 28 1005.7
20260503230414 70 242 5.0 14.0 0.00 0.00 0.00 31 1005.8
20260503230127 70 242 5.0 14.0 0.00 0.00 0.00 31 1005.8
20260503225414 70 227 4.0 11.0 0.00 0.00 0.00 31 1005.7
20260503224725 70 248 4.0 15.0 0.00 0.00 0.00 31 1005.8
20260503224415 71 241 6.0 15.0 0.00 0.00 0.00 31 1006.0
20260503224029 71 241 6.0 15.0 0.00 0.00 0.00 31 1006.0
20260503223414 70 242 3.0 12.0 0.00 0.00 0.00 34 1006.0
20260503222623 71 244 5.0 12.0 0.00 0.00 0.00 33 1006.0
20260503222415 70 233 6.0 11.0 0.00 0.00 0.00 33 1006.0
20260503221924 70 250 4.0 10.0 0.00 0.00 0.00 35 1006.0
20260503221415 70 239 4.0 11.0 0.00 0.00 0.00 34 1006.0
20260503221224 70 239 4.0 11.0 0.00 0.00 0.00 34 1006.0
20260503220524 71 237 6.0 11.0 0.00 0.00 0.00 34 1006.2
20260503220415 71 240 4.0 10.0 0.00 0.00 0.00 35 1006.1
20260503215822 70 228 3.0 13.0 0.00 0.00 0.00 35 1006.2
20260503215415 70 262 3.0 13.0 0.00 0.00 0.00 35 1006.3
20260503215122 70 262 3.0 13.0 0.00 0.00 0.00 35 1006.3
20260503214414 70 254 4.0 17.0 0.00 0.00 0.00 33 1006.4
20260503213725 70 249 7.0 17.0 0.00 0.00 0.00 35 1006.5
20260503213414 70 253 4.0 11.0 0.00 0.00 0.00 36 1006.6
20260503213024 70 253 4.0 11.0 0.00 0.00 0.00 36 1006.6
20260503212414 70 270 3.0 9.0 0.00 0.00 0.00 37 1006.8
20260503212321 70 270 3.0 9.0 0.00 0.00 0.00 37 1006.8
20260503211622 70 317 1.0 8.0 0.00 0.00 0.00 40 1006.8
20260503211414 70 237 2.0 8.0 0.00 0.00 0.00 38 1007.0
20260503210924 70 277 4.0 10.0 0.00 0.00 0.00 38 1007.1
20260503210416 70 287 3.0 10.0 0.00 0.00 0.00 37 1007.1
20260503210225 70 287 3.0 10.0 0.00 0.00 0.00 37 1007.1
20260503205523 70 244 4.0 11.0 0.00 0.00 0.00 36 1007.1
20260503205416 70 240 5.0 11.0 0.00 0.00 0.00 35 1007.1
20260503204823 69 320 2.0 18.0 0.00 0.00 0.00 39 1007.2
20260503204415 69 252 4.0 18.0 0.00 0.00 0.00 37 1007.3
20260503204124 69 252 4.0 18.0 0.00 0.00 0.00 37 1007.3
20260503203415 69 289 5.0 12.0 0.00 0.00 0.00 38 1007.6
20260503202723 69 316 5.0 9.0 0.00 0.00 0.00 38 1007.6
20260503202415 68 330 4.0 9.0 0.00 0.00 0.00 37 1007.6
20260503202022 68 330 4.0 9.0 0.00 0.00 0.00 37 1007.6
20260503201415 68 272 3.0 9.0 0.00 0.00 0.00 35 1008.0
20260503201323 68 272 3.0 9.0 0.00 0.00 0.00 35 1008.0
20260503200622 68 314 4.0 14.0 0.00 0.00 0.00 38 1008.0
20260503200415 69 322 5.0 14.0 0.00 0.00 0.00 37 1008.1
20260503195925 68 283 1.0 10.0 0.00 0.00 0.00 40 1008.2
20260503195414 68 330 3.0 10.0 0.00 0.00 0.00 41 1008.2
20260503195222 68 330 3.0 10.0 0.00 0.00 0.00 41 1008.2
20260503194523 68 296 3.0 8.0 0.00 0.00 0.00 40 1008.3
20260503194414 68 289 4.0 12.0 0.00 0.00 0.00 40 1008.3
20260503193823 67 309 3.0 12.0 0.00 0.00 0.00 40 1008.3
20260503193414 67 324 5.0 9.0 0.00 0.00 0.00 38 1008.4
20260503193123 67 324 5.0 9.0 0.00 0.00 0.00 38 1008.4
20260503192414 67 259 4.0 12.0 0.00 0.00 0.00 41 1008.5
20260503191722 67 308 4.0 12.0 0.00 0.00 0.00 40 1008.4
20260503191414 67 330 4.0 10.0 0.00 0.00 0.00 39 1008.6
20260503191023 67 330 4.0 10.0 0.00 0.00 0.00 39 1008.6
20260503190416 67 291 3.0 10.0 0.00 0.00 0.00 41 1008.7
20260503190323 67 291 3.0 10.0 0.00 0.00 0.00 41 1008.7
20260503185625 67 294 4.0 10.0 0.00 0.00 0.00 41 1008.8
20260503185414 67 295 3.0 10.0 0.00 0.00 0.00 43 1008.9
20260503184925 67 320 5.0 14.0 0.00 0.00 0.00 40 1008.9
20260503184414 67 321 4.0 14.0 0.00 0.00 0.00 43 1008.9
20260503184226 67 321 4.0 14.0 0.00 0.00 0.00 43 1008.9
20260503183522 67 303 3.0 10.0 0.00 0.00 0.00 41 1009.1
20260503183414 67 336 4.0 10.0 0.00 0.00 0.00 42 1009.1
20260503182822 66 332 3.0 10.0 0.00 0.00 0.00 44 1009.0
20260503182414 66 261 3.0 11.0 0.00 0.00 0.00 45 1009.2
20260503182122 66 261 3.0 11.0 0.00 0.00 0.00 45 1009.2
20260503181416 66 335 5.0 13.0 0.00 0.00 0.00 42 1009.2
20260503180724 66 323 4.0 11.0 0.00 0.00 0.00 42 1009.4
20260503180416 66 323 4.0 11.0 0.00 0.00 0.00 43 1009.5
20260503180025 66 323 4.0 11.0 0.00 0.00 0.00 43 1009.5
20260503175415 66 290 2.0 11.0 0.00 0.00 0.00 46 1009.6
20260503175323 66 290 2.0 11.0 0.00 0.00 0.00 46 1009.6
20260503174625 65 281 3.0 12.0 0.00 0.00 0.00 44 1009.5
20260503174415 65 325 5.0 12.0 0.00 0.00 0.00 44 1009.6
20260503173923 65 317 5.0 12.0 0.00 0.00 0.00 45 1009.7
20260503173415 66 278 4.0 9.0 0.00 0.00 0.00 47 1009.7
20260503173224 66 278 4.0 9.0 0.00 0.00 0.00 47 1009.7
20260503172523 65 288 3.0 14.0 0.00 0.00 0.00 49 1009.8
20260503172415 65 313 4.0 14.0 0.00 0.00 0.00 49 1009.8
20260503171823 64 343 5.0 11.0 0.00 0.00 0.00 49 1009.9
20260503171414 64 335 6.0 12.0 0.00 0.00 0.00 48 1010.0
20260503171123 64 335 6.0 12.0 0.00 0.00 0.00 48 1010.0
20260503170414 64 273 4.0 14.0 0.00 0.00 0.00 51 1010.0